TimeEST,TemperatureF,Dew PointF,Humidity,Sea Level PressureIn,VisibilityMPH,Wind Direction,Wind SpeedMPH,Gust SpeedMPH,PrecipitationIn,Events,Conditions,WindDirDegrees,DateUTC
12:53 AM,17.1,7.0,65,30.07,10.0,Calm,Calm,-,N/A,,Clear,0,2012-12-31 05:53:00
1:53 AM,26.1,8.1,47,30.09,10.0,WNW,10.4,19.6,N/A,,Clear,300,2012-12-31 06:53:00
2:53 AM,24.1,9.0,53,30.11,10.0,West,4.6,-,N/A,,Clear,260,2012-12-31 07:53:00
3:53 AM,25.0,10.0,53,30.09,10.0,WSW,5.8,-,N/A,,Clear,250,2012-12-31 08:53:00
4:53 AM,24.1,10.9,57,30.10,10.0,SSW,5.8,-,N/A,,Overcast,200,2012-12-31 09:53:00
5:53 AM,24.1,10.9,57,30.10,10.0,South,3.5,-,N/A,,Overcast,190,2012-12-31 10:53:00
6:53 AM,25.0,12.9,60,30.10,10.0,Variable,4.6,-,N/A,,Overcast,0,2012-12-31 11:53:00
7:53 AM,26.1,15.1,63,30.12,10.0,SW,9.2,16.1,N/A,,Overcast,230,2012-12-31 12:53:00
8:53 AM,27.0,15.1,61,30.11,10.0,SW,5.8,-,N/A,,Overcast,220,2012-12-31 13:53:00
9:53 AM,28.9,18.0,64,30.11,10.0,SSW,6.9,-,N/A,,Overcast,210,2012-12-31 14:53:00
10:53 AM,30.0,18.0,61,30.08,10.0,SSW,5.8,-,N/A,,Clear,200,2012-12-31 15:53:00
11:53 AM,32.0,19.0,59,30.05,10.0,WSW,8.1,-,N/A,,Clear,240,2012-12-31 16:53:00
12:53 PM,34.0,19.0,54,30.01,10.0,Variable,5.8,-,N/A,,Clear,0,2012-12-31 17:53:00
1:53 PM,35.1,19.9,54,29.98,10.0,WSW,6.9,-,N/A,,Clear,250,2012-12-31 18:53:00
2:53 PM,36.0,21.0,55,29.96,10.0,SW,3.5,-,N/A,,Clear,220,2012-12-31 19:53:00
3:53 PM,35.1,21.0,57,29.94,10.0,SW,4.6,-,N/A,,Clear,230,2012-12-31 20:53:00
4:53 PM,34.0,19.9,56,29.93,10.0,SW,4.6,-,N/A,,Clear,220,2012-12-31 21:53:00
5:53 PM,33.1,21.0,61,29.91,10.0,SSW,4.6,-,N/A,,Clear,200,2012-12-31 22:53:00
6:53 PM,34.0,21.0,59,29.90,10.0,SSW,8.1,-,N/A,,Clear,200,2012-12-31 23:53:00
7:53 PM,35.1,21.9,59,29.89,10.0,SSW,6.9,-,N/A,,Scattered Clouds,210,2013-01-01 00:53:00
8:53 PM,35.1,21.0,57,29.86,10.0,Variable,5.8,-,N/A,,Clear,0,2013-01-01 01:53:00
11:53 PM,35.1,21.9,59,29.83,10.0,SSW,4.6,-,N/A,,Overcast,210,2013-01-01 04:53:00